sat.trackr.live / text

‹ back to catalog

KUIPER-00060

NORAD 64520 · 2025-134W

PAYLOAD ACTIVE UNKNOWN

§ Identity

Operator
Country
US
Launch date
2025-06-23
Launch site
AFETR
Launch vehicle
Mass (kg)
RCS (m²)

External: N2YO · Heavens-Above · Gunter

§ Orbital elements

Epoch: 2026-09-21T18:49:13.678176Z

Period
97.30 min
Inclination
51.9028°
Eccentricity
0.0000623
Mean motion
14.79931173 rev/d
Perigee alt
629.1 km
Apogee alt
630.0 km
Semi-major
7,007.7 km
B*
-2.4594e-5
RAAN
73.5321°
Arg perigee
115.8040°
Mean anomaly
244.2986°
Rev number
6,927

§ Raw data

KUIPER-000601 64520U 25134W   26264.78418609 -.00000409  00000+0 -24594-4 0  99972 64520  51.9028  73.5321 0000623 115.8040 244.2986 14.79931173 69279

JSON: /api/v1/satellites/64520 · /tle

For live sub-satellite position, see the globe view (requires WebGL).

§ Visibility from observer

Set your observer location to see the next 7 days of passes ≥ 10°. The values pass through the URL so the page stays shareable.

No JS? Fill the form by hand. The geolocation button needs JavaScript.